Location: *
(34.6903°N, 135.5184°E)
Time: 23:49:23
(UTC+00:00)

OAO 3 Rocket - Pass Details

Date: 22 September 2019
Orbit: 629 x 683 km, 35.0° (Epoch: 21 October)

Event Time Altitude Azimuth Distance (km) Brightness Sun altitude
Exits shadow 19:37:27 25° 253° (WSW) 1,281 4.1 -14.8°
Maximum altitude 19:40:09 80° 170° (S) 640 3.1 -14.3°
Drops below altitude 10° 19:44:48 10° 83° (E) 1,998 7.2 -13.4°
Sets 19:47:09 0° 82° (E) 2,908 8.6 -12.9°
